This is the latest recevied weather packets stored in our database for station/object K4GSL. If no packets are shown the sender has not sent any weather packets the latest 10 day(s).
| Time | Temp. | Humidity | Pressure | Rain* | Wind** | Luminosity | Snow |
|---|---|---|---|---|---|---|---|
| 1777913255 | 13.33° C | 86% | 1018.6 hPa | 0 mm | - | 111 W/m² | - |
| 1777912953 | 13.33° C | 87% | 1018.5 hPa | 0 mm | - | 102 W/m² | - |
| 1777912648 | 13.33° C | 87% | 1018.4 hPa | 0 mm | - | 95 W/m² | - |
| 1777912344 | 13.33° C | 88% | 1018.4 hPa | 0 mm | - | 89 W/m² | - |
| 1777912040 | 13.33° C | 87% | 1018.6 hPa | 0 mm | - | 88 W/m² | - |
| 1777911737 | 13.33° C | 88% | 1018.2 hPa | 0 mm | - | 85 W/m² | - |
| 1777911434 | 13.33° C | 88% | 1018.3 hPa | 0 mm | - | 82 W/m² | - |
| 1777911131 | 13.33° C | 89% | 1018.5 hPa | 0 mm | - | 77 W/m² | - |
| 1777910828 | 12.78° C | 90% | 1018.3 hPa | 0 mm | - | 73 W/m² | - |
| 1777910525 | 12.78° C | 90% | 1018.2 hPa | 0 mm | - | 69 W/m² | - |
| 1777910221 | 12.78° C | 89% | 1018.4 hPa | 0 mm | - | 70 W/m² | - |
| 1777909918 | 12.78° C | 90% | 1018.2 hPa | 0 mm | - | 64 W/m² | - |
| 1777909615 | 12.78° C | 90% | 1018.3 hPa | 0 mm | - | 61 W/m² | - |
| 1777909313 | 12.78° C | 90% | 1018.4 hPa | 0 mm | - | 55 W/m² | - |
| 1777909010 | 12.78° C | 90% | 1018.1 hPa | 0 mm | - | 55 W/m² | - |
| 1777908708 | 12.78° C | 91% | 1018.4 hPa | 0 mm | - | 55 W/m² | - |
| 1777908405 | 12.78° C | 91% | 1018 hPa | 0 mm | - | 51 W/m² | - |
| 1777908101 | 12.78° C | 92% | 1017.9 hPa | 0 mm | - | 51 W/m² | - |
| 1777907797 | 12.78° C | 92% | 1018.1 hPa | 0 mm | - | 51 W/m² | - |
| 1777907493 | 12.78° C | 92% | 1018 hPa | 0 mm | - | 47 W/m² | - |
| 1777907190 | 12.22° C | 93% | 1017.9 hPa | 0 mm | - | 47 W/m² | - |
| 1777906887 | 12.22° C | 94% | 1018.1 hPa | 0 mm | - | 45 W/m² | - |
| 1777906584 | 12.22° C | 95% | 1017.8 hPa | 0 mm | - | 41 W/m² | - |
| 1777906280 | 11.67° C | 95% | 1017.9 hPa | 0 mm | - | 35 W/m² | - |
| 1777905977 | 11.67° C | 97% | 1018 hPa | 0 mm | - | 35 W/m² | - |
* Rain latest hour (hover to see other rain measurements)
** Current wind speed in m/s (hover to see current wind gust speed)